Voltar ao catálogo

STARLINK-11311

AtivoComunicaçõesVLEO
NORAD 61253·PAYLOAD·🇺🇸 United States

Lançado Sep 25, 2024 de Vandenberg Space Force Base

Loading…

Próximas Passagens (próximas 24 horas)

TLE

AtualizadoSource: CelesTrak SupGP

Época: Sep 15, 2026, 02:39 UTC

1 61253C 24175L   26258.11090278 -.00073986  00000+0 -60920-3 0  2589
2 61253  53.1570 202.6761 0001255  89.4655 305.6977 15.69756024    17

Acompanhe STARLINK-11311 em tempo real com AllMySat

Download on the App Store